Location: Newark
(53.4716°N, 2.0338°W)
Time: 08:53:58
(UTC+00:00)

OTV 5 (USA 277) - Visible Passes

Search period start: 22 October 2019 00:00
Search period end: 01 November 2019 00:00
Orbit: 310 x 324 km, 54.5° (Epoch: 17 October)

Date Brightness Start Highest point End Pass type
(mag) Time Alt. Az. Time Alt. Az. Time Alt. Az.
30 Oct ? 19:07:10 10° SW 19:07:33 13° SW 19:07:33 13° SW visible
31 Oct ? 17:48:41 10° S 17:50:18 14° SE 17:50:56 14° ESE visible
31 Oct ? 19:21:28 10° WSW 19:21:50 13° WSW 19:21:50 13° WSW visible
